This demonstration page uses our WeatherBlox Daily Observations layout. Learn more.

Left ArrowRight Arrow

39.95238, -75.16362

Hourly Observations for April 16, 2015

Temp ( °F °C ) Dew Point ( °F °C ) Humidity (%) Winds ( mph kmh ) Pressure ( in mb ) Visibility ( mi km ) Precip ( " mm )
12:54 am 00:54 Mostly Cloudy 58 14.4 24 -4.4 27 27 N 8 13 30.37 1029 10 16 0.00 0.00
1:54 am 01:54 Mostly Cloudy 57 13.9 24 -4.4 28 28 N 8 13 30.38 1029 10 16 0.00 0.00
2:54 am 02:54 Mostly Cloudy 55 12.8 24 -4.4 30 30 N 6 9 30.39 1029 10 16 0.00 0.00
3:54 am 03:54 Cloudy 52 11.1 27 -2.8 38 38 NE 8 13 30.39 1029 10 16 0.00 0.00
4:54 am 04:54 Cloudy 52 11.1 26 -3.3 37 37 NE 6 9 30.41 1030 10 16 0.00 0.00
5:54 am 05:54 Mostly Cloudy 51 10.6 27 -2.8 39 39 NE 9 15 30.42 1030 10 16 0.00 0.00
6:54 am 06:54 Mostly Cloudy 52 11.1 27 -2.8 38 38 NE 8 13 30.44 1031 10 16 0.00 0.00
7:54 am 07:54 Mostly Cloudy 53 11.7 27 -2.8 37 37 ENE 12 19 30.45 1031 10 16 0.00 0.00
8:54 am 08:54 Mostly Cloudy 55 12.8 28 -2.2 35 35 ENE 13 20 30.46 1031 10 16 0.00 0.00
9:54 am 09:54 Mostly Cloudy 59 15 27 -2.8 29 29 ENE 12 19 30.46 1032 10 16 0.00 0.00
10:54 am 10:54 Mostly Cloudy 61 16.1 27 -2.8 27 27 E 9 15 30.46 1032 10 16 0.00 0.00
11:54 am 11:54 Mostly Cloudy 66 18.9 30 -1.1 26 26 E 8 13 30.44 1031 10 16 0.00 0.00
12:54 pm 12:54 Mostly Cloudy 67 19.4 29 -1.7 24 24 SSE 8 13 30.41 1030 10 16 0.00 0.00
1:54 pm 13:54 Mostly Cloudy 68 20 27 -2.8 21 21 SSW 6 9 30.39 1029 10 16 0.00 0.00
2:54 pm 14:54 Mostly Cloudy 70 21.1 29 -1.7 22 22 S 7 11 30.37 1028 10 16 0.00 0.00
3:54 pm 15:54 Mostly Cloudy 70 21.1 32 0 25 25 S 8 13 30.34 1027 10 16 0.00 0.00
4:54 pm 16:54 Mostly Cloudy 69 20.6 26 -3.3 20 20 VRB 6 9 30.33 1027 10 16 0.00 0.00
5:54 pm 17:54 Mostly Cloudy 69 20.6 26 -3.3 20 20 S 14 22 30.31 1027 10 16 0.00 0.00
6:54 pm 18:54 Mostly Cloudy 66 18.9 30 -1.1 26 26 S 10 17 30.30 1026 10 16 0.00 0.00
7:54 pm 19:54 Mostly Cloudy 64 17.8 39 3.9 40 40 S 15 24 30.29 1026 10 16 0.00 0.00
8:54 pm 20:54 Cloudy 62 16.7 42 5.6 48 48 S 10 17 30.30 1026 10 16 0.00 0.00
9:54 pm 21:54 Cloudy 61 16.1 45 7.2 56 56 S 10 17 30.29 1026 10 16 0.00 0.00
10:54 pm 22:54 Cloudy 61 16.1 47 8.3 60 60 S 10 17 30.26 1025 10 16 0.00 0.00
11:54 pm 23:54 Mostly Cloudy 60 15.6 48 8.9 65 65 SSW 9 15 30.25 1024 10 16 0.00 0.00

Powered by AerisWeather